#timestamp,LO_Frequency,Hit 
1499652015.1,286046998.5,N
1499652016.0,286046998.5,N
1499652035.8,286046999.0,N
1499652055.7,286046999.6,N
1499652075.5,286046996.6,N
1499652095.3,286046997.5,N
1499652115.2,286046997.0,N
1499652135.9,286046997.3,N
1499652155.7,286046996.8,N
1499652175.6,286046997.1,N
1499652195.4,286046997.7,N
1499652215.3,286046999.0,N
1499652235.1,286046998.9,N
1499652236.0,286046998.9,N
1499652255.8,286046999.1,N
1499652275.7,286046998.6,N
1499652295.5,286046998.9,N
1499652315.3,286047001.0,N
1499652335.2,286046998.6,N
1499652355.0,286047001.2,N
1499652355.9,286047001.2,N
1499652375.8,286047000.9,N
1499652395.6,286046998.9,N
1499652415.4,286047001.0,N
1499652435.3,286046998.3,N
1499652455.1,286046998.7,N
1499652475.8,286046998.1,N
1499652495.7,286046999.3,N
1499652515.5,286046998.8,N
1499652535.4,286046998.9,N
1499652555.2,286046996.5,N
1499652575.0,286046996.7,N
1499652575.9,286046996.7,N
1499652595.8,286046997.1,N
1499652615.6,286046996.9,N
1499652635.4,286046996.5,N
1499652655.3,286046999.1,N
1499652675.1,286046998.8,N
1499652695.9,286046996.6,N
1499652715.7,286046996.9,N
1499652735.5,286046998.3,N
1499652755.4,286046996.6,N
1499652775.2,286046999.1,N
1499652795.0,286046997.0,N
1499652796.0,286046997.0,N
1499652815.8,286046999.6,N
1499652835.6,286046998.8,N
1499652855.5,286046996.9,N
1499652875.3,286046998.8,N
1499652895.1,286047002.7,N
1499652915.9,286047002.7,N
1499652935.7,286047002.2,N
1499652955.6,286047002.2,N
1499652975.4,286047003.7,N
1499652995.2,286047005.6,N
1499653015.1,286047005.8,N
1499653016.0,286047005.8,N
1499653035.8,286047007.5,N
1499653055.7,286047005.8,N
1499653075.5,286047003.2,N
1499653095.3,286047005.4,N
1499653115.2,286047005.3,N
1499653135.0,286047003.2,N
1499653135.9,286047003.2,N
1499653155.8,286047003.2,N
1499653175.6,286047004.3,N
1499653195.4,286047004.4,N
1499653215.3,286047001.4,N
1499653235.1,286047001.4,N
1499653255.8,286047001.8,N
1499653275.7,286047002.6,N
1499653295.5,286047004.3,N
1499653315.4,286047004.1,N
1499653335.2,286047003.6,N
1499653355.0,286047001.5,N
1499653355.9,286047001.5,N
1499653375.8,286047002.6,N
1499653395.6,286047000.2,N
1499653415.4,286047000.6,N
1499653435.3,286047000.6,N
1499653455.1,286047000.6,N
1499653475.9,286047001.2,N
1499653495.7,286046999.9,N
1499653515.5,286047000.7,N
1499653535.4,286047002.8,N
1499653555.2,286046998.3,N
1499653575.1,286046999.6,N
1499653576.0,286046999.6,N
1499653595.8,286046996.7,N
1499653615.6,286046996.5,N
1499653635.5,286046997.1,N
1499653655.3,286046997.7,N
1499653675.1,286046997.4,N
1499653695.9,286046997.7,N
1499653715.7,286046997.2,N
1499653735.6,286046998.0,N
1499653755.4,286046997.8,N
1499653775.2,286046997.9,N
1499653795.1,286046997.5,N
1499653796.0,286046997.5,N
1499653815.8,286046997.4,N
1499653835.7,286046996.6,N
1499653855.5,286046997.0,N
1499653875.3,286046996.6,N
1499653895.2,286046997.2,N
1499653915.0,286046997.3,N
1499653915.9,286046997.3,N
1499653935.8,286046997.4,N
1499653955.6,286046997.4,N
1499653975.4,286046997.1,N
1499653995.3,286046995.4,N
1499654015.6,286046996.1,N
1499654035.5,286046995.3,N
1499654055.3,286046996.3,N
1499654075.1,286046996.3,N
1499654095.9,286046996.0,N
1499654115.7,286046993.7,N
1499654135.6,286046996.0,N
1499654155.4,286046993.3,N
1499654175.2,286046996.1,N
1499654195.1,286046996.1,N
1499654196.0,286046996.1,N
1499654215.8,286046995.0,N
1499654235.6,286046997.9,N
1499654255.5,286046996.2,N
1499654275.3,286046995.8,N
1499654295.2,286046996.1,N
1499654315.9,286046995.8,N
1499654335.7,286046993.8,N
1499654355.6,286046995.9,N
1499654375.4,286046993.3,N
1499654395.3,286046993.7,N
1499654415.1,286046994.7,N
1499654416.0,286046994.7,N
1499654435.8,286046992.1,N
1499654455.7,286046992.2,N
1499654475.5,286046991.9,N
1499654495.3,286046994.4,N
1499654515.2,286046994.8,N
1499654535.0,286046991.7,N
1499654535.9,286046991.7,N
1499654555.8,286046992.4,N
1499654575.6,286046992.8,N
1499654595.4,286046992.8,N
1499654615.3,286046990.1,N
1499654635.1,286046990.8,N
1499654655.9,286046990.4,N
1499654675.7,286046991.4,N
1499654695.5,286046990.9,N
1499654715.4,286046990.7,N
1499654735.2,286046991.5,N
1499654755.0,286046990.9,N
1499654755.9,286046990.9,N
1499654775.8,286046993.1,N
1499654795.6,286046990.6,N
1499654815.5,286046990.8,N
1499654835.3,286046992.8,N
1499654855.1,286046994.7,N
1499654875.9,286046993.6,N
1499654895.7,286046992.1,N
1499654915.5,286046992.3,N
1499654935.4,286046991.8,N
1499654955.2,286046991.9,N
1499654975.1,286046994.2,N
1499654976.0,286046994.2,N
1499654995.8,286046994.2,N
1499655015.6,286046991.8,N
1499655035.5,286046994.8,N
1499655055.3,286046991.8,N
1499655075.2,286046994.2,N
1499655095.9,286046992.0,N
1499655115.7,286046992.4,N
1499655135.6,286046993.7,N
1499655155.4,286046996.2,N
1499655175.2,286046996.0,N
1499655195.1,286046996.0,N
1499655196.0,286046996.0,N
1499655215.8,286046993.5,N
1499655235.7,286046994.2,N
1499655255.5,286046996.2,N
1499655275.3,286046993.5,N
1499655295.2,286046994.4,N
1499655315.0,286046993.9,N
1499655315.9,286046993.9,N
1499655335.7,286046994.5,N
1499655355.6,286046995.2,N
1499655375.4,286046995.4,N
1499655395.3,286046995.8,N
1499655415.1,286046993.3,N
1499655416.0,286046993.3,N
1499655435.8,286046993.9,N
1499655455.7,286046994.1,N
1499655475.5,286046996.0,N
1499655495.3,286046996.1,N
1499655515.2,286046996.4,N
1499655535.0,286046995.9,N
1499655535.9,286046995.9,N
1499655555.8,286046995.1,N
1499655575.6,286046995.5,N
1499655595.4,286046995.3,N
